Temperature
20 19 19 19 19 19 19 19 19 19 19 19 19 19 19 19 19 19 19 19 19 19 19 19 19 19 19 19 19 19 19 19 19 19 19 19 18 18 18 18 18 18 18
20 19 20 19 19 19 19 19 19 19 19 19 19 19 19 19 19 19 19 19 19 19 19 19 18 19 19 19 19 19 19 19 19 18 18 18 18 18 18 18 18 18 18
20 19 19 19 19 19 19 19 19 19 19 19 19 19 19 19 19 19 19 18 19 19 18 18 18 19 19 19 19 19 19 19 19 19 18 18 18 18 18 18 18 18 18
20 19 19 19 19 19 19 19 19 19 19 19 19 19 19 19 19 19 19 18 18 18 18 18 18 19 19 19 19 19 19 19 19 18 18 18 18 18 18 18 18 18 18
20 19 19 19 19 19 19 19 19 19 19 19 19 19 19 19 19 19 19 18 18 18 18 18 18 19 19 19 19 19 18 18 18 18 18 18 18 18 18 18 18 18 18
20 19 19 19 19 19 19 19 19 19 19 19 19 19 19 19 19 18 18 18 18 18 18 18 19 19 19 19 18 18 18 18 18 18 18 18 18 18 18 18 18 18 18
20 19 19 20 19 19 19 19 19 19 19 19 19 19 19 19 19 18 18 18 18 18 18 18 18 18 19 18 18 18 18 18 18 18 18 18 18 18 18 18 18 18 18
20 20 19 20 19 19 19 19 19 19 19 19 19 19 19 19 19 18 18 18 18 18 18 18 18 18 18 18 18 18 18 18 18 18 18 18 18 18 18 18 18 18 17
20 20 19 19 19 19 19 19 19 19 19 19 19 19 19 19 19 19 18 18 18 18 18 18 18 18 18 18 18 18 18 18 18 18 18 18 18 18 18 18 18 18 17
20 20 19 19 19 19 19 19 19 19 19 19 19 19 19 19 19 18 18 18 18 18 18 18 18 18 18 18 18 18 18 18 18 18 18 18 18 18 18 18 18 18 18
20 19 19 19 19 19 19 19 19 19 19 19 19 19 19 18 18 18 18 18 18 18 18 18 18 18 18 18 18 18 18 18 18 18 18 18 18 18 18 18 18 17 17
20 20 19 19 19 19 19 19 19 19 19 19 18 18 18 18 18 18 18 18 18 18 18 18 18 18 18 18 18 18 18 18 18 18 18 18 18 18 18 18 18 17 17
20 20 20 19 19 19 19 19 19 19 19 19 18 18 18 18 18 18 18 18 18 18 18 18 18 18 18 18 18 18 18 18 18 18 18 18 18 18 18 18 17 17 17
20 20 20 19 19 19 19 19 19 19 19 19 18 18 18 18 18 18 18 18 18 18 18 18 18 18 18 18 18 18 18 18 18 18 18 18 18 18 18 18 17 17 17
20 20 20 20 19 19 19 19 19 19 19 19 19 18 18 18 18 18 18 18 18 18 18 18 18 18 18 18 18 18 18 18 18 18 18 18 18 18 18 17 17 17 17
20 20 20 19 19 19 19 19 19 19 19 19 19 18 18 18 18 18 18 18 18 18 18 18 18 18 18 18 18 18 18 18 18 18 18 17 18 18 18 17 17 17 17
20 20 20 20 20 20 19 19 19 19 19 19 19 18 18 18 18 18 18 18 18 18 18 18 18 18 18 18 18 18 18 18 18 18 18 17 17 17 17 17 17 17 17
21 20 20 20 20 20 20 19 19 19 19 19 19 19 18 18 18 18 18 18 18 18 18 18 18 18 18 18 18 18 18 18 18 18 18 17 17 17 17 17 17 17 17
20 20 20 20 20 20 20 20 19 19 19 19 19 19 18 18 18 18 18 18 18 18 18 18 18 18 18 18 18 18 18 18 18 18 18 18 17 17 17 17 17 17 17
20 21 21 20 20 20 20 20 19 19 19 19 19 19 19 18 18 18 18 18 18 18 18 18 18 18 18 18 18 18 18 18 18 18 18 18 17 17 17 17 17 17 17
21 21 21 20 20 20 20 20 20 19 19 19 19 19 19 19 18 18 18 18 18 18 18 18 18 18 18 18 18 18 18 18 18 18 17 17 17 17 17 17 17 16 16
21 21 21 21 20 20 20 20 20 19 19 19 19 19 19 19 18 18 18 18 18 18 18 17 17 18 18 18 18 19 19 19 18 18 17 17 17 17 17 17 17 16 16
21 21 21 21 21 21 20 20 20 19 19 19 19 19 19 19 18 18 18 18 18 18 18 17 17 17 18 18 18 18 19 20 19 18 17 17 17 17 17 16 16 16 16
21 21 21 21 21 21 21 20 20 20 19 19 19 19 19 19 18 18 18 18 18 18 18 17 17 17 17 18 18 17 17 18 18 19 18 17 17 16 16 16 16 16 16
22 21 21 21 21 21 21 20 20 20 19 19 19 19 19 19 18 18 18 18 18 18 18 18 17 17 17 17 18 17 17 17 17 18 18 17 17 17 16 16 16 16 16
22 21 21 21 21 21 21 20 20 20 20 19 19 19 19 18 18 18 18 18 18 18 18 17 17 17 17 17 17 17 17 17 18 18 18 17 17 17 16 16 16 16 16
Wind_Speed
4 6 8 5 5 6 7 7 7 8 9 9 10 11 12 12 12 12 12 13 13 12 12 13 13 13 12 12 12 11 11 11 11 11 11 11 10 10 10 9 9 10 12
6 7 9 6 6 6 7 8 8 9 9 9 10 11 11 12 12 13 12 12 12 12 12 12 12 12 12 12 12 11 11 11 11 10 11 11 11 10 9 7 4 9 11
7 8 9 7 7 7 8 8 9 9 9 10 10 11 11 11 12 12 12 12 12 12 11 12 12 11 11 11 11 10 10 10 10 10 10 10 11 10 9 8 8 8 9
8 8 8 9 7 8 8 8 8 9 9 10 10 11 11 11 11 11 11 11 11 11 11 11 11 11 10 10 10 10 10 9 9 9 9 7 8 11 9 8 9 8 8
8 8 10 8 8 8 8 8 8 9 9 10 10 10 10 10 10 11 11 10 10 9 10 10 11 10 10 10 9 9 9 9 8 9 6 6 7 10 9 8 8 8 8
8 8 11 8 8 8 8 8 8 8 8 9 9 9 9 9 9 10 10 9 9 8 9 9 10 10 9 9 9 8 8 8 9 6 5 5 7 9 8 8 7 7 7
8 8 10 8 7 7 7 7 7 8 8 8 8 8 8 8 9 9 9 8 8 8 8 8 9 8 8 8 8 7 7 7 6 5 5 5 7 9 7 7 7 6 6
8 8 10 9 7 7 7 7 7 7 7 7 8 8 8 8 8 9 9 9 8 7 7 7 7 7 7 7 7 6 6 7 6 4 4 5 9 8 7 6 6 6 6
8 7 8 8 8 7 6 6 6 7 7 7 7 7 7 8 8 8 8 9 8 7 7 6 6 6 6 6 6 5 5 5 4 3 3 4 8 7 6 6 6 6 6
7 7 6 6 6 6 7 7 6 6 6 6 6 6 6 7 7 7 8 8 7 6 6 5 5 6 6 6 6 5 5 7 5 3 3 6 8 5 5 6 6 6 6
6 6 5 5 5 5 5 7 6 6 5 5 5 6 4 4 6 7 7 8 6 6 6 5 5 5 6 7 7 6 7 5 3 2 2 8 7 5 6 6 7 7 7
7 6 5 5 4 4 4 5 4 4 5 3 3 4 3 3 3 5 8 7 6 6 7 6 5 6 7 6 8 9 5 4 4 3 4 7 5 5 6 6 7 8 8
7 6 5 4 4 3 3 3 3 2 3 3 3 2 2 2 3 3 4 6 6 6 5 7 7 5 4 2 3 4 4 4 3 3 6 8 6 5 6 6 7 8 8
6 6 5 4 4 3 2 2 2 2 2 2 4 1 2 2 1 2 1 2 3 3 3 3 3 3 3 3 4 3 4 3 2 2 5 8 6 5 6 6 6 5 7
6 6 5 4 4 3 2 1 2 2 2 3 2 2 1 1 1 2 1 1 1 2 3 3 3 3 3 4 4 4 3 3 3 4 4 7 7 7 6 6 6 5 5
6 6 5 5 5 4 3 2 1 1 2 2 2 2 1 1 1 1 2 1 1 1 1 2 2 3 3 3 3 3 3 3 3 4 3 6 7 7 6 6 6 6 6
6 6 6 6 5 4 4 3 2 1 2 1 2 2 1 1 1 1 1 1 1 2 3 2 2 2 3 3 2 2 2 3 2 3 3 4 6 8 7 7 6 6 6
6 6 6 5 6 5 4 3 2 1 2 1 1 2 1 0 0 1 1 1 1 2 2 2 2 1 1 1 1 1 1 2 3 3 3 4 4 5 7 8 6 6 6
7 7 7 6 5 5 5 4 2 2 1 1 1 1 1 1 1 1 0 0 1 1 1 1 1 0 1 0 1 2 1 1 2 2 2 3 3 3 4 8 8 6 5
7 7 7 7 6 5 5 4 3 2 2 1 1 0 1 1 1 1 1 1 1 1 1 0 1 0 1 1 2 0 1 1 1 1 2 3 3 4 4 4 6 6 6
8 8 8 7 7 6 5 4 4 3 2 2 1 1 1 1 1 1 1 1 1 1 1 1 1 2 1 1 2 1 2 2 2 1 1 1 3 3 3 4 3 3 5
10 9 8 8 7 7 5 4 3 2 2 2 1 1 2 1 2 2 2 2 1 0 1 1 1 1 1 1 2 2 2 3 2 2 2 2 2 2 2 3 3 3 4
11 10 9 8 8 7 6 5 4 3 3 3 2 2 2 2 2 2 1 2 1 2 1 1 2 2 1 1 1 2 2 0 1 2 1 1 1 1 2 2 3 3 4
11 10 10 9 8 7 7 6 6 4 3 3 2 2 3 3 3 3 2 2 2 1 1 2 1 2 3 2 1 1 2 2 2 1 2 2 1 2 1 2 2 3 3
11 10 9 9 8 7 7 7 6 5 4 3 3 3 3 3 3 3 3 2 2 2 1 1 1 3 2 3 2 1 2 2 3 3 2 2 2 2 1 2 2 2 3
10 10 10 9 8 8 8 7 7 6 5 4 3 3 3 3 3 3 3 2 3 2 2 2 2 3 2 2 3 2 2 2 3 3 3 3 2 1 2 1 2 2 2
Wind_Direction
107 105 103 102 100 101 105 109 110 114 115 123 131 136 137 137 138 140 140 137 136 138 140 140 141 139 137 136 135 134 135 134 133 133 134 136 139 141 141 144 152 137 126
116 111 110 102 98 100 106 109 107 110 113 119 130 134 135 135 135 137 137 136 136 138 140 141 141 139 139 137 136 137 138 140 140 142 147 148 147 148 147 146 136 122 133
116 114 116 105 99 97 102 109 110 111 112 118 128 132 133 132 133 135 133 131 131 136 139 141 139 138 138 138 140 141 141 144 148 155 170 159 147 149 149 144 135 137 139
114 115 108 107 103 99 101 105 110 112 111 115 123 129 131 130 133 133 132 131 131 133 138 140 138 138 140 142 143 145 146 147 155 179 178 152 145 142 150 149 150 150 146
113 110 103 107 104 102 102 102 105 108 108 111 119 126 129 130 131 132 131 132 132 135 138 139 138 138 139 143 145 147 148 152 170 201 160 150 138 138 154 157 159 157 157
114 112 107 105 104 103 103 103 102 107 111 112 115 119 126 128 127 129 129 130 133 136 138 141 139 139 139 141 146 149 153 167 192 176 157 156 138 138 151 156 160 161 163
116 114 111 106 102 101 100 100 101 105 110 112 114 116 120 127 131 133 136 136 136 139 141 141 142 142 142 145 151 157 166 190 204 173 162 154 130 133 145 157 164 163 167
117 116 117 118 109 102 100 100 99 103 105 109 112 115 120 123 128 134 139 140 141 145 149 150 150 149 148 150 154 162 178 216 196 170 167 145 121 137 151 160 166 166 172
117 117 119 127 129 125 110 101 101 103 104 107 113 119 123 126 130 135 138 139 142 146 155 161 162 164 163 162 165 169 183 237 237 167 171 139 129 150 164 172 176 183 188
119 118 120 119 118 125 125 117 106 103 104 107 111 117 128 137 139 144 148 142 149 157 160 166 174 176 173 176 178 182 195 226 233 191 176 128 133 160 180 185 187 197 204
130 127 125 123 124 126 123 120 128 125 120 131 127 129 152 147 142 150 130 134 149 159 165 171 185 186 189 185 185 196 211 219 208 215 160 115 143 177 193 196 196 203 209
143 141 139 133 128 127 117 117 125 127 117 113 98 123 136 122 126 124 121 138 150 158 166 177 189 202 220 191 181 199 212 204 207 199 144 131 156 187 199 202 203 206 209
145 145 144 139 131 125 116 118 115 113 111 116 100 107 116 133 133 132 138 151 162 176 179 178 199 207 204 200 198 187 203 215 199 185 141 148 171 191 201 203 205 210 210
148 150 147 145 141 131 116 116 121 110 104 105 114 130 134 135 130 121 141 146 161 160 158 179 185 179 197 210 208 205 206 220 212 189 143 154 180 194 201 201 204 209 208
156 155 151 151 145 140 138 156 121 111 102 110 100 116 130 142 135 138 134 153 181 148 164 169 169 172 195 201 204 195 202 208 218 214 163 163 185 195 200 198 197 201 206
165 161 155 161 156 157 159 153 121 117 116 100 113 114 140 141 123 141 156 169 185 174 150 167 164 174 189 184 193 186 205 202 211 227 200 172 181 188 194 198 197 199 204
170 168 166 168 164 166 169 164 151 160 142 128 126 120 147 175 139 186 182 186 173 163 164 175 166 181 181 177 176 186 201 208 208 220 227 210 184 181 188 192 190 195 199
175 174 182 179 171 171 174 175 170 164 138 128 133 131 151 180 185 221 222 189 173 191 172 160 196 179 140 195 161 226 208 185 202 218 221 211 199 182 175 183 191 197 200
183 182 184 190 184 179 177 175 179 170 168 166 163 158 155 192 201 221 171 82 218 203 200 214 133 171 176 250 216 199 233 227 201 221 220 212 187 179 167 165 177 183 188
184 186 188 190 189 187 184 184 186 187 193 195 185 168 197 213 215 244 186 182 245 207 202 125 123 168 244 242 278 214 223 206 208 196 212 186 166 177 171 163 172 175 181
189 189 191 192 186 190 193 197 191 189 192 188 197 180 206 234 207 237 263 176 264 258 266 224 211 178 205 239 257 235 186 176 156 163 194 181 169 178 173 172 185 193 188
193 194 193 193 191 194 190 196 199 200 200 199 187 162 216 214 228 209 242 244 236 263 218 233 233 262 222 207 261 270 225 167 164 142 160 177 180 183 187 185 190 212 242
199 197 197 195 192 194 192 193 194 192 206 192 186 178 199 209 213 244 236 265 248 244 201 234 228 235 242 218 258 284 287 335 136 158 155 154 177 197 203 190 201 214 238
200 197 194 193 193 190 193 201 204 206 210 210 204 179 177 196 207 209 215 225 248 262 211 240 193 232 242 248 206 250 288 323 282 207 194 170 193 222 227 233 205 197 219
194 191 188 189 191 190 195 199 205 213 214 206 195 181 196 185 201 211 206 206 219 242 251 277 245 251 246 261 264 238 237 229 249 269 265 245 224 216 194 220 223 206 198
190 189 187 186 190 190 196 201 207 213 216 211 202 196 202 198 199 195 200 206 219 237 231 237 236 228 257 277 282 277 266 265 260 262 267 261 261 247 220 235 240 221 207
Height
1521 1520 1518 1518 1518 1518 1518 1518 1518 1518 1518 1518 1519 1520 1521 1523 1524 1526 1528 1530 1531 1533 1534 1536 1538 1540 1541 1543 1544 1545 1546 1548 1549 1550 1552 1553 1554 1555 1556 1557 1559 1560 1560
1522 1520 1519 1520 1519 1519 1519 1519 1519 1519 1519 1520 1520 1521 1523 1524 1526 1528 1530 1531 1533 1535 1536 1538 1539 1541 1542 1544 1546 1547 1548 1550 1551 1552 1553 1554 1555 1556 1557 1559 1560 1561 1561
1523 1522 1521 1521 1521 1521 1521 1521 1522 1521 1521 1521 1522 1523 1525 1526 1528 1530 1531 1533 1535 1536 1538 1539 1541 1543 1544 1545 1547 1548 1549 1551 1552 1554 1555 1557 1557 1558 1559 1560 1560 1561 1562
1524 1524 1523 1522 1523 1523 1523 1523 1523 1523 1524 1524 1524 1525 1527 1528 1530 1532 1533 1535 1537 1538 1539 1541 1542 1544 1545 1547 1548 1549 1551 1552 1553 1555 1558 1559 1559 1559 1559 1560 1561 1562 1563
1526 1526 1524 1524 1524 1525 1525 1525 1525 1525 1526 1526 1527 1528 1529 1530 1532 1533 1535 1537 1538 1540 1541 1542 1544 1545 1547 1548 1550 1551 1552 1553 1554 1556 1559 1559 1559 1559 1560 1561 1562 1563 1564
1528 1528 1527 1526 1526 1527 1527 1527 1527 1528 1528 1528 1529 1530 1531 1532 1533 1535 1536 1538 1540 1541 1543 1544 1545 1547 1548 1549 1551 1552 1553 1554 1556 1558 1559 1560 1560 1560 1560 1561 1562 1563 1564
1530 1530 1529 1528 1528 1529 1529 1529 1529 1530 1530 1531 1531 1532 1533 1534 1535 1537 1538 1539 1541 1543 1544 1545 1547 1548 1549 1550 1552 1553 1554 1555 1557 1559 1559 1560 1560 1560 1561 1562 1563 1564 1565
1531 1532 1531 1530 1530 1531 1531 1531 1532 1532 1532 1533 1533 1534 1535 1536 1537 1538 1540 1541 1542 1544 1545 1546 1548 1549 1550 1551 1552 1553 1554 1555 1558 1560 1560 1561 1560 1560 1561 1562 1563 1564 1565
1533 1533 1533 1534 1533 1533 1533 1533 1534 1534 1534 1535 1535 1536 1536 1537 1539 1540 1541 1542 1543 1545 1546 1547 1548 1550 1551 1552 1553 1554 1555 1556 1559 1559 1560 1560 1559 1560 1561 1562 1563 1564 1565
1534 1535 1535 1536 1536 1536 1536 1535 1535 1536 1536 1536 1537 1537 1538 1538 1540 1541 1542 1543 1544 1545 1546 1547 1549 1550 1551 1552 1553 1554 1555 1556 1558 1559 1560 1559 1559 1560 1560 1561 1562 1563 1564
1535 1536 1537 1537 1538 1538 1539 1538 1538 1537 1538 1538 1538 1538 1539 1541 1542 1542 1543 1543 1544 1545 1546 1547 1549 1550 1551 1552 1553 1553 1555 1557 1558 1559 1559 1558 1558 1559 1560 1561 1561 1562 1563
1536 1537 1538 1539 1539 1540 1540 1540 1540 1541 1540 1540 1541 1541 1541 1542 1543 1544 1544 1544 1545 1545 1546 1547 1548 1549 1551 1553 1553 1553 1555 1556 1557 1558 1558 1557 1558 1558 1559 1560 1561 1561 1562
1537 1538 1539 1540 1540 1541 1541 1541 1542 1542 1542 1542 1542 1542 1542 1543 1544 1544 1545 1545 1545 1546 1547 1547 1548 1550 1551 1552 1553 1554 1554 1556 1556 1557 1557 1556 1557 1557 1558 1559 1560 1561 1561
1538 1539 1539 1540 1540 1541 1542 1542 1542 1543 1543 1544 1543 1543 1544 1544 1544 1545 1545 1546 1546 1547 1547 1548 1548 1549 1550 1551 1552 1553 1553 1554 1555 1556 1555 1555 1555 1556 1557 1558 1558 1559 1560
1538 1539 1540 1540 1540 1541 1541 1542 1543 1543 1544 1544 1544 1544 1544 1545 1545 1545 1545 1545 1547 1547 1547 1547 1548 1548 1549 1550 1551 1552 1552 1553 1554 1555 1554 1554 1554 1554 1555 1556 1557 1557 1558
1539 1539 1540 1540 1541 1541 1542 1543 1544 1544 1544 1545 1545 1545 1544 1545 1545 1545 1545 1546 1546 1547 1547 1547 1548 1548 1549 1550 1551 1551 1552 1552 1552 1553 1554 1553 1553 1553 1553 1554 1555 1556 1557
1539 1539 1540 1541 1541 1542 1543 1544 1545 1545 1546 1546 1546 1545 1545 1546 1545 1546 1546 1546 1547 1547 1546 1547 1548 1548 1549 1550 1550 1551 1551 1551 1551 1551 1552 1552 1551 1551 1552 1552 1553 1554 1555
1538 1539 1540 1542 1542 1542 1543 1544 1545 1546 1546 1546 1546 1546 1545 1545 1545 1545 1546 1547 1547 1547 1547 1547 1548 1549 1549 1549 1550 1550 1550 1550 1550 1550 1550 1550 1551 1551 1551 1551 1552 1552 1553
1537 1539 1540 1541 1542 1543 1543 1544 1545 1545 1546 1546 1546 1546 1546 1546 1546 1546 1546 1546 1547 1547 1547 1548 1548 1548 1548 1549 1549 1549 1549 1549 1549 1549 1548 1548 1549 1549 1550 1550 1550 1551 1551
1536 1537 1539 1540 1541 1542 1543 1544 1545 1545 1546 1546 1546 1546 1546 1546 1546 1546 1547 1546 1547 1547 1547 1547 1546 1546 1547 1548 1549 1548 1548 1548 1548 1547 1547 1547 1547 1548 1549 1549 1549 1550 1550
1535 1536 1537 1539 1540 1541 1542 1544 1544 1545 1545 1546 1546 1546 1546 1546 1546 1545 1546 1546 1546 1546 1546 1546 1546 1546 1547 1547 1548 1548 1547 1547 1547 1546 1547 1547 1547 1547 1547 1547 1548 1548 1549
1533 1534 1535 1537 1538 1540 1541 1542 1543 1544 1545 1545 1545 1545 1545 1545 1545 1546 1545 1546 1545 1545 1545 1545 1544 1546 1547 1547 1547 1547 1547 1548 1546 1547 1546 1546 1546 1546 1546 1546 1546 1546 1547
1531 1532 1534 1535 1537 1538 1540 1541 1542 1543 1544 1544 1544 1544 1544 1544 1544 1544 1545 1545 1544 1545 1545 1544 1544 1544 1546 1546 1546 1547 1546 1545 1546 1546 1546 1545 1545 1545 1545 1545 1545 1544 1545
1528 1530 1532 1533 1535 1536 1538 1539 1540 1542 1542 1543 1543 1543 1543 1543 1543 1543 1543 1543 1543 1544 1543 1543 1543 1543 1544 1545 1545 1544 1545 1545 1545 1545 1546 1545 1544 1543 1543 1543 1543 1543 1543
1526 1528 1530 1531 1533 1534 1536 1537 1538 1540 1541 1542 1542 1542 1542 1542 1542 1542 1542 1542 1542 1542 1542 1542 1542 1542 1543 1543 1544 1544 1544 1544 1544 1544 1544 1544 1543 1543 1542 1541 1541 1541 1541
1524 1526 1528 1529 1531 1532 1534 1535 1536 1537 1539 1540 1540 1541 1541 1541 1541 1541 1541 1540 1541 1541 1541 1541 1540 1540 1541 1541 1541 1542 1542 1542 1542 1542 1542 1542 1541 1541 1540 1540 1539 1539 1539